Time,TemperatureF,DewpointF,PressureIn,WindDirection,WindDirectionDegrees,WindSpeedMPH,WindSpeedGustMPH,Humidity,HourlyPrecipIn,Conditions,Clouds,dailyrainin,SoftwareType,DateUTC
2013-08-04 00:03:00,93.1,65.2,29.45,NNW,338,0.4,3.4,40,0.00,,,0.00,WUHU216HW,2013-08-03 21:03:00,
2013-08-04 00:08:00,93.1,65.2,29.45,NW,315,1.6,3.4,40,0.00,,,0.00,WUHU216HW,2013-08-03 21:08:00,
2013-08-04 00:13:00,93.1,65.2,29.45,NW,315,1.1,2.5,40,0.00,,,0.00,WUHU216HW,2013-08-03 21:13:00,
2013-08-04 00:18:00,92.9,65.7,29.45,North,0,2.5,2.7,41,0.00,,,0.00,WUHU216HW,2013-08-03 21:18:00,
2013-08-04 00:23:00,92.9,65.7,29.45,WNW,293,2.7,4.0,41,0.00,,,0.00,WUHU216HW,2013-08-03 21:23:00,
2013-08-04 00:28:00,92.9,66.3,29.45,NW,315,2.2,4.0,42,0.00,,,0.00,WUHU216HW,2013-08-03 21:28:00,
2013-08-04 00:33:00,92.9,66.3,29.45,NNW,338,2.9,3.6,42,0.00,,,0.00,WUHU216HW,2013-08-03 21:33:00,
2013-08-04 00:38:00,92.9,66.3,29.45,NW,315,2.5,4.7,42,0.00,,,0.00,WUHU216HW,2013-08-03 21:38:00,
2013-08-04 00:43:00,92.9,66.3,29.45,NW,315,3.1,4.7,42,0.00,,,0.00,WUHU216HW,2013-08-03 21:43:00,
2013-08-04 00:48:00,92.9,66.3,29.45,NW,315,2.0,3.4,42,0.00,,,0.00,WUHU216HW,2013-08-03 21:48:00,
2013-08-04 00:54:00,92.9,66.3,29.45,NNW,338,3.1,3.4,42,0.00,,,0.00,WUHU216HW,2013-08-03 21:54:00,
2013-08-04 00:58:00,92.9,66.3,29.45,North,0,2.7,4.3,42,0.00,,,0.00,WUHU216HW,2013-08-03 21:58:00,
2013-08-04 01:03:00,92.9,66.3,29.45,NNW,338,2.9,4.3,42,0.00,,,0.00,WUHU216HW,2013-08-03 22:03:00,
2013-08-04 01:09:00,92.9,66.3,29.45,North,0,2.9,5.8,42,0.00,,,0.00,WUHU216HW,2013-08-03 22:09:00,
2013-08-04 01:14:00,92.9,66.3,29.45,NNW,338,0.4,5.8,42,0.00,,,0.00,WUHU216HW,2013-08-03 22:14:00,
2013-08-04 01:19:00,92.9,66.3,29.45,North,0,2.2,5.1,42,0.00,,,0.00,WUHU216HW,2013-08-03 22:19:00,
2013-08-04 01:24:00,92.9,67.0,29.45,NNW,338,2.7,3.4,43,0.00,,,0.00,WUHU216HW,2013-08-03 22:24:00,
2013-08-04 01:29:00,92.7,66.8,29.45,NNE,23,3.1,3.4,43,0.00,,,0.00,WUHU216HW,2013-08-03 22:29:00,
2013-08-04 01:33:00,92.5,67.3,29.45,NNE,23,2.5,6.0,44,0.00,,,0.00,WUHU216HW,2013-08-03 22:33:00,
2013-08-04 01:39:00,92.5,68.0,29.45,NNW,338,2.2,6.0,45,0.00,,,0.00,WUHU216HW,2013-08-03 22:39:00,
2013-08-04 01:44:00,92.3,67.2,29.45,WNW,293,2.7,4.0,44,0.00,,,0.00,WUHU216HW,2013-08-03 22:44:00,
2013-08-04 01:48:00,92.2,65.0,29.45,WNW,293,4.0,4.7,41,0.00,,,0.00,WUHU216HW,2013-08-03 22:48:00,
2013-08-04 01:53:00,92.0,64.9,29.45,WNW,293,2.5,4.7,41,0.00,,,0.00,WUHU216HW,2013-08-03 22:53:00,
2013-08-04 01:59:00,91.8,65.3,29.45,WNW,293,1.3,4.3,42,0.00,,,0.00,WUHU216HW,2013-08-03 22:59:00,
2013-08-04 02:04:00,91.8,64.7,29.45,NW,315,2.5,2.9,41,0.00,,,0.00,WUHU216HW,2013-08-03 23:04:00,
2013-08-04 02:09:00,91.6,65.2,29.45,WNW,293,3.1,3.1,42,0.00,,,0.00,WUHU216HW,2013-08-03 23:09:00,
2013-08-04 02:14:00,91.4,63.7,29.45,WNW,293,1.8,3.4,40,0.00,,,0.00,WUHU216HW,2013-08-03 23:14:00,
2013-08-04 02:19:00,91.6,59.1,29.45,SW,225,2.5,5.4,34,0.00,,,0.00,WUHU216HW,2013-08-03 23:19:00,
2013-08-04 02:24:00,91.8,57.7,29.45,WSW,248,1.6,5.4,32,0.00,,,0.00,WUHU216HW,2013-08-03 23:24:00,
2013-08-04 02:29:00,91.8,56.9,29.45,West,270,2.5,4.0,31,0.00,,,0.00,WUHU216HW,2013-08-03 23:29:00,
2013-08-04 02:34:00,91.8,56.1,29.45,West,270,3.1,5.4,30,0.00,,,0.00,WUHU216HW,2013-08-03 23:34:00,
2013-08-04 02:39:00,91.8,56.9,29.45,West,270,3.4,5.4,31,0.00,,,0.00,WUHU216HW,2013-08-03 23:39:00,
2013-08-04 02:44:00,91.4,57.4,29.45,WNW,293,4.3,5.4,32,0.00,,,0.00,WUHU216HW,2013-08-03 23:44:00,
2013-08-04 02:49:00,91.1,57.9,29.45,WNW,293,3.4,5.4,33,0.00,,,0.00,WUHU216HW,2013-08-03 23:49:00,
2013-08-04 02:54:00,90.9,57.7,29.45,WNW,293,4.5,5.4,33,0.00,,,0.00,WUHU216HW,2013-08-03 23:54:00,
2013-08-04 02:59:00,90.7,58.3,29.45,West,270,4.9,5.6,34,0.00,,,0.00,WUHU216HW,2013-08-03 23:59:00,
2013-08-04 03:04:00,90.5,59.0,29.45,WNW,293,4.0,6.0,35,0.00,,,0.00,WUHU216HW,2013-08-04 00:04:00,
2013-08-04 03:09:00,90.0,59.2,29.45,WNW,293,6.3,6.7,36,0.00,,,0.00,WUHU216HW,2013-08-04 00:09:00,
2013-08-04 03:14:00,90.0,60.8,29.45,WNW,293,5.4,6.7,38,0.00,,,0.00,WUHU216HW,2013-08-04 00:14:00,
2013-08-04 03:19:00,89.8,61.5,29.45,West,270,4.5,6.7,39,0.00,,,0.00,WUHU216HW,2013-08-04 00:19:00,
2013-08-04 03:24:00,89.6,62.1,29.45,West,270,4.3,6.7,40,0.00,,,0.00,WUHU216HW,2013-08-04 00:24:00,
2013-08-04 03:29:00,89.6,62.1,29.45,West,270,4.9,6.7,40,0.00,,,0.00,WUHU216HW,2013-08-04 00:29:00,
2013-08-04 03:34:00,89.5,62.7,29.45,WNW,293,4.7,5.4,41,0.00,,,0.00,WUHU216HW,2013-08-04 00:34:00,
2013-08-04 03:39:00,89.5,63.3,29.45,West,270,2.7,4.9,42,0.00,,,0.00,WUHU216HW,2013-08-04 00:39:00,
2013-08-04 03:44:00,89.3,63.1,29.45,NW,315,2.2,4.3,42,0.00,,,0.00,WUHU216HW,2013-08-04 00:44:00,
2013-08-04 03:49:00,89.3,63.7,29.45,NW,315,2.0,4.3,43,0.00,,,0.00,WUHU216HW,2013-08-04 00:49:00,
2013-08-04 03:54:00,89.3,63.7,29.45,WNW,293,2.7,4.3,43,0.00,,,0.00,WUHU216HW,2013-08-04 00:54:00,
2013-08-04 03:59:00,89.1,64.3,29.45,NW,315,3.1,4.0,44,0.00,,,0.00,WUHU216HW,2013-08-04 00:59:00,
2013-08-04 04:04:00,89.1,64.9,29.45,WNW,293,2.9,4.0,45,0.00,,,0.00,WUHU216HW,2013-08-04 01:04:00,
2013-08-04 04:09:00,89.1,64.9,29.45,NW,315,1.8,4.0,45,0.00,,,0.00,WUHU216HW,2013-08-04 01:09:00,
2013-08-04 04:14:00,89.1,65.5,29.45,NNW,338,1.1,4.0,46,0.00,,,0.00,WUHU216HW,2013-08-04 01:14:00,
2013-08-04 04:19:00,89.3,65.7,29.46,North,0,2.0,4.0,46,0.00,,,0.00,WUHU216HW,2013-08-04 01:19:00,
2013-08-04 04:24:00,89.3,65.7,29.46,North,0,1.6,4.0,46,0.00,,,0.00,WUHU216HW,2013-08-04 01:24:00,
2013-08-04 04:29:00,89.5,65.2,29.46,East,90,1.8,2.5,45,0.00,,,0.00,WUHU216HW,2013-08-04 01:29:00,
2013-08-04 04:34:00,89.6,64.7,29.46,East,90,0.9,2.5,44,0.00,,,0.00,WUHU216HW,2013-08-04 01:34:00,
2013-08-04 04:39:00,89.8,64.9,29.46,East,90,0.7,2.5,44,0.00,,,0.00,WUHU216HW,2013-08-04 01:39:00,
2013-08-04 04:44:00,89.8,66.2,29.46,NNW,338,1.6,2.5,46,0.00,,,0.00,WUHU216HW,2013-08-04 01:44:00,
2013-08-04 04:49:00,89.6,66.0,29.46,North,0,0.7,2.5,46,0.00,,,0.00,WUHU216HW,2013-08-04 01:49:00,
2013-08-04 04:54:00,89.5,66.5,29.46,North,0,1.3,2.5,47,0.00,,,0.00,WUHU216HW,2013-08-04 01:54:00,
2013-08-04 04:59:00,89.3,67.0,29.46,NW,315,1.6,2.9,48,0.00,,,0.00,WUHU216HW,2013-08-04 01:59:00,
2013-08-04 05:04:00,89.1,68.1,29.45,WNW,293,2.5,2.9,50,0.00,,,0.00,WUHU216HW,2013-08-04 02:04:00,
2013-08-04 05:09:00,89.1,68.1,29.46,NNW,338,2.5,2.7,50,0.00,,,0.00,WUHU216HW,2013-08-04 02:09:00,
2013-08-04 05:14:00,88.9,68.5,29.46,West,270,1.8,2.7,51,0.00,,,0.00,WUHU216HW,2013-08-04 02:14:00,
2013-08-04 05:19:00,88.7,68.9,29.46,NW,315,1.8,3.4,52,0.00,,,0.00,WUHU216HW,2013-08-04 02:19:00,
2013-08-04 05:24:00,88.7,68.9,29.46,NW,315,2.0,3.4,52,0.00,,,0.00,WUHU216HW,2013-08-04 02:24:00,
2013-08-04 05:29:00,88.6,68.1,29.46,West,270,2.5,3.4,51,0.00,,,0.00,WUHU216HW,2013-08-04 02:29:00,
2013-08-04 05:34:00,88.7,68.9,29.46,WNW,293,3.1,3.4,52,0.00,,,0.00,WUHU216HW,2013-08-04 02:34:00,
2013-08-04 05:39:00,88.6,68.7,29.46,NW,315,0.9,3.4,52,0.00,,,0.00,WUHU216HW,2013-08-04 02:39:00,
2013-08-04 05:44:00,88.6,68.7,29.46,NW,315,2.0,3.1,52,0.00,,,0.00,WUHU216HW,2013-08-04 02:44:00,
2013-08-04 05:49:00,88.4,68.5,29.46,WNW,293,1.1,3.1,52,0.00,,,0.00,WUHU216HW,2013-08-04 02:49:00,
2013-08-04 05:54:00,88.6,68.7,29.46,NW,315,1.6,3.1,52,0.00,,,0.00,WUHU216HW,2013-08-04 02:54:00,
2013-08-04 05:59:00,88.6,68.7,29.46,NNW,338,1.8,2.5,52,0.00,,,0.00,WUHU216HW,2013-08-04 02:59:00,
2013-08-04 06:04:00,88.7,68.9,29.46,NW,315,2.0,2.7,52,0.00,,,0.00,WUHU216HW,2013-08-04 03:04:00,
2013-08-04 06:09:00,89.1,69.2,29.46,NNW,338,2.5,3.4,52,0.00,,,0.00,WUHU216HW,2013-08-04 03:09:00,
2013-08-04 06:14:00,89.5,68.9,29.46,NNE,23,1.6,3.4,51,0.00,,,0.00,WUHU216HW,2013-08-04 03:14:00,
2013-08-04 06:19:00,90.0,68.2,29.47,NNE,23,1.3,3.1,49,0.00,,,0.00,WUHU216HW,2013-08-04 03:19:00,
2013-08-04 06:24:00,90.9,69.0,29.47,NNE,23,2.9,4.7,49,0.00,,,0.00,WUHU216HW,2013-08-04 03:24:00,
2013-08-04 06:29:00,91.1,69.2,29.47,NNE,23,4.9,4.9,49,0.00,,,0.00,WUHU216HW,2013-08-04 03:29:00,
2013-08-04 06:34:00,91.1,68.6,29.47,North,0,1.8,6.3,48,0.00,,,0.00,WUHU216HW,2013-08-04 03:34:00,
2013-08-04 06:39:00,90.9,68.4,29.47,North,0,4.0,6.3,48,0.00,,,0.00,WUHU216HW,2013-08-04 03:39:00,
2013-08-04 06:44:00,91.1,68.6,29.47,ENE,68,0.7,4.7,48,0.00,,,0.00,WUHU216HW,2013-08-04 03:44:00,
2013-08-04 06:49:00,91.3,69.4,29.47,NE,45,2.5,4.7,49,0.00,,,0.00,WUHU216HW,2013-08-04 03:49:00,
2013-08-04 06:54:00,91.8,70.6,29.47,North,0,1.3,4.9,50,0.00,,,0.00,WUHU216HW,2013-08-04 03:54:00,
2013-08-04 06:59:00,92.2,71.4,29.48,East,90,2.0,5.1,51,0.00,,,0.00,WUHU216HW,2013-08-04 03:59:00,
2013-08-04 07:01:00,92.2,71.4,29.48,East,90,2.0,5.1,51,0.00,,,0.00,WUHU216HW,2013-08-04 04:01:00,
2013-08-04 07:07:00,92.5,71.2,29.48,NNE,23,4.7,5.4,50,0.00,,,0.00,WUHU216HW,2013-08-04 04:07:00,
2013-08-04 07:11:00,91.6,72.0,29.47,NW,315,4.5,5.8,53,0.00,,,0.00,WUHU216HW,2013-08-04 04:11:00,
2013-08-04 07:17:00,91.1,71.5,29.48,NNW,338,2.0,5.8,53,0.00,,,0.00,WUHU216HW,2013-08-04 04:17:00,
2013-08-04 07:22:00,91.1,71.5,29.48,NE,45,0.4,5.4,53,0.00,,,0.00,WUHU216HW,2013-08-04 04:22:00,
2013-08-04 07:27:00,91.4,71.8,29.48,NNE,23,5.8,6.5,53,0.00,,,0.00,WUHU216HW,2013-08-04 04:27:00,
2013-08-04 07:32:00,91.8,72.2,29.48,North,0,3.4,6.5,53,0.00,,,0.00,WUHU216HW,2013-08-04 04:32:00,
2013-08-04 07:37:00,92.2,73.1,29.49,North,0,4.9,6.5,54,0.00,,,0.00,WUHU216HW,2013-08-04 04:37:00,
2013-08-04 07:42:00,92.9,74.8,29.49,ESE,113,0.9,7.6,56,0.00,,,0.00,WUHU216HW,2013-08-04 04:42:00,
2013-08-04 07:47:00,92.9,74.8,29.49,NNW,338,3.8,7.6,56,0.00,,,0.00,WUHU216HW,2013-08-04 04:47:00,
2013-08-04 07:52:00,92.7,75.3,29.49,North,0,4.7,4.9,57,0.00,,,0.00,WUHU216HW,2013-08-04 04:52:00,
2013-08-04 07:57:00,92.2,75.3,29.49,North,0,1.8,4.9,58,0.00,,,0.00,WUHU216HW,2013-08-04 04:57:00,
2013-08-04 08:02:00,92.3,76.0,29.49,North,0,2.5,5.8,59,0.00,,,0.00,WUHU216HW,2013-08-04 05:02:00,
2013-08-04 08:07:00,92.5,76.2,29.49,NNE,23,6.5,6.5,59,0.00,,,0.00,WUHU216HW,2013-08-04 05:07:00,
2013-08-04 08:12:00,92.9,78.5,29.49,NE,45,5.6,6.5,63,0.00,,,0.00,WUHU216HW,2013-08-04 05:12:00,
2013-08-04 08:17:00,92.7,78.3,29.49,East,90,3.1,6.0,63,0.00,,,0.00,WUHU216HW,2013-08-04 05:17:00,
2013-08-04 08:22:00,92.5,78.6,29.49,SE,135,1.1,6.0,64,0.00,,,0.00,WUHU216HW,2013-08-04 05:22:00,
2013-08-04 08:27:00,92.7,79.2,29.49,ENE,68,2.9,4.9,65,0.00,,,0.00,WUHU216HW,2013-08-04 05:27:00,
2013-08-04 08:32:00,92.5,79.9,29.49,SE,135,2.5,3.8,67,0.00,,,0.00,WUHU216HW,2013-08-04 05:32:00,
2013-08-04 08:37:00,92.7,80.1,29.49,NNE,23,4.5,5.8,67,0.00,,,0.00,WUHU216HW,2013-08-04 05:37:00,
2013-08-04 08:42:00,93.4,80.8,29.49,ENE,68,4.7,5.8,67,0.00,,,0.00,WUHU216HW,2013-08-04 05:42:00,
2013-08-04 08:47:00,93.6,80.6,29.49,NNE,23,3.8,6.5,66,0.00,,,0.00,WUHU216HW,2013-08-04 05:47:00,
2013-08-04 08:52:00,94.1,81.0,29.49,NE,45,3.4,6.5,66,0.00,,,0.00,WUHU216HW,2013-08-04 05:52:00,
2013-08-04 08:57:00,94.7,80.6,29.49,NE,45,3.4,6.9,64,0.00,,,0.00,WUHU216HW,2013-08-04 05:57:00,
2013-08-04 09:02:00,94.7,80.1,29.49,North,0,2.0,8.1,63,0.00,,,0.00,WUHU216HW,2013-08-04 06:02:00,
2013-08-04 09:07:00,94.0,80.8,29.49,East,90,0.7,8.1,66,0.00,,,0.00,WUHU216HW,2013-08-04 06:07:00,
2013-08-04 09:12:00,94.0,79.9,29.49,North,0,2.5,5.6,64,0.00,,,0.00,WUHU216HW,2013-08-04 06:12:00,
2013-08-04 09:17:00,94.5,81.4,29.50,East,90,2.5,4.5,66,0.00,,,0.00,WUHU216HW,2013-08-04 06:17:00,
2013-08-04 09:22:00,95.0,81.8,29.50,East,90,4.7,6.3,66,0.00,,,0.00,WUHU216HW,2013-08-04 06:22:00,
2013-08-04 09:27:00,95.4,82.2,29.50,ESE,113,2.0,7.8,66,0.00,,,0.00,WUHU216HW,2013-08-04 06:27:00,
2013-08-04 09:32:00,95.4,82.2,29.50,East,90,5.4,7.8,66,0.00,,,0.00,WUHU216HW,2013-08-04 06:32:00,
2013-08-04 09:37:00,95.4,82.2,29.50,ENE,68,3.8,7.4,66,0.00,,,0.00,WUHU216HW,2013-08-04 06:37:00,
2013-08-04 09:42:00,95.4,82.2,29.50,NNE,23,3.4,8.7,66,0.00,,,0.00,WUHU216HW,2013-08-04 06:42:00,
2013-08-04 09:47:00,95.0,82.3,29.50,North,0,2.7,9.4,67,0.00,,,0.00,WUHU216HW,2013-08-04 06:47:00,
2013-08-04 09:52:00,95.2,83.0,29.50,ENE,68,6.3,9.4,68,0.00,,,0.00,WUHU216HW,2013-08-04 06:52:00,
2013-08-04 09:57:00,94.9,82.6,29.50,ENE,68,5.4,7.6,68,0.00,,,0.00,WUHU216HW,2013-08-04 06:57:00,
2013-08-04 10:02:00,94.9,82.6,29.50,ESE,113,2.9,9.4,68,0.00,,,0.00,WUHU216HW,2013-08-04 07:02:00,
2013-08-04 10:07:00,95.0,82.8,29.50,ENE,68,5.4,9.4,68,0.00,,,0.00,WUHU216HW,2013-08-04 07:07:00,
2013-08-04 10:12:00,95.6,83.3,29.49,East,90,3.6,7.6,68,0.00,,,0.00,WUHU216HW,2013-08-04 07:12:00,
2013-08-04 10:17:00,95.9,83.2,29.50,ENE,68,4.7,6.7,67,0.00,,,0.00,WUHU216HW,2013-08-04 07:17:00,
2013-08-04 10:23:00,95.8,83.4,29.49,ESE,113,2.5,8.5,68,0.00,,,0.00,WUHU216HW,2013-08-04 07:23:00,
2013-08-04 10:28:00,95.6,83.3,29.49,North,0,4.0,8.5,68,0.00,,,0.00,WUHU216HW,2013-08-04 07:28:00,
2013-08-04 10:33:00,96.1,83.8,29.50,ENE,68,4.0,7.4,68,0.00,,,0.00,WUHU216HW,2013-08-04 07:33:00,
2013-08-04 10:38:00,96.1,83.3,29.50,ENE,68,4.5,8.1,67,0.00,,,0.00,WUHU216HW,2013-08-04 07:38:00,
2013-08-04 10:43:00,96.5,83.3,29.49,NE,45,7.6,8.1,66,0.00,,,0.00,WUHU216HW,2013-08-04 07:43:00,
2013-08-04 10:48:00,96.5,82.3,29.49,ESE,113,5.4,7.6,64,0.00,,,0.00,WUHU216HW,2013-08-04 07:48:00,
2013-08-04 10:53:00,96.8,82.1,29.49,ENE,68,5.1,7.6,63,0.00,,,0.00,WUHU216HW,2013-08-04 07:53:00,
2013-08-04 10:58:00,96.8,81.1,29.48,ENE,68,2.9,7.2,61,0.00,,,0.00,WUHU216HW,2013-08-04 07:58:00,
2013-08-04 11:03:00,97.6,77.5,29.48,ENE,68,3.4,5.6,53,0.00,,,0.00,WUHU216HW,2013-08-04 08:03:00,
2013-08-04 11:08:00,98.3,77.1,29.48,North,0,4.3,6.0,51,0.00,,,0.00,WUHU216HW,2013-08-04 08:08:00,
2013-08-04 11:13:00,98.5,74.7,29.48,NW,315,2.5,6.5,47,0.00,,,0.00,WUHU216HW,2013-08-04 08:13:00,
2013-08-04 11:18:00,98.8,73.7,29.47,North,0,1.8,6.5,45,0.00,,,0.00,WUHU216HW,2013-08-04 08:18:00,
2013-08-04 11:23:00,99.5,67.7,29.47,NNE,23,3.4,5.4,36,0.00,,,0.00,WUHU216HW,2013-08-04 08:23:00,
2013-08-04 11:28:00,100.3,68.3,29.47,NNE,23,2.0,8.5,36,0.00,,,0.00,WUHU216HW,2013-08-04 08:28:00,
2013-08-04 11:33:00,101.0,67.3,29.47,ENE,68,6.5,9.2,34,0.00,,,0.00,WUHU216HW,2013-08-04 08:33:00,
2013-08-04 11:38:00,101.2,77.1,29.47,SSE,158,6.7,10.7,47,0.00,,,0.00,WUHU216HW,2013-08-04 08:38:00,
2013-08-04 11:43:00,99.9,81.4,29.47,ENE,68,7.6,10.7,56,0.00,,,0.00,WUHU216HW,2013-08-04 08:43:00,
2013-08-04 11:48:00,98.8,82.1,29.47,ENE,68,7.8,9.8,59,0.00,,,0.00,WUHU216HW,2013-08-04 08:48:00,
2013-08-04 11:53:00,98.3,82.5,29.46,ENE,68,5.4,9.4,61,0.00,,,0.00,WUHU216HW,2013-08-04 08:53:00,
2013-08-04 11:58:00,98.5,83.3,29.46,ENE,68,6.9,9.4,62,0.00,,,0.00,WUHU216HW,2013-08-04 08:58:00,
2013-08-04 12:03:00,97.9,83.2,29.46,NE,45,8.3,9.2,63,0.00,,,0.00,WUHU216HW,2013-08-04 09:03:00,
2013-08-04 12:08:00,97.6,83.4,29.46,ESE,113,4.7,9.2,64,0.00,,,0.00,WUHU216HW,2013-08-04 09:08:00,
2013-08-04 12:13:00,97.9,83.2,29.46,East,90,6.0,9.2,63,0.00,,,0.00,WUHU216HW,2013-08-04 09:13:00,
2013-08-04 12:18:00,97.6,82.8,29.45,ENE,68,5.6,9.8,63,0.00,,,0.00,WUHU216HW,2013-08-04 09:18:00,
2013-08-04 12:23:00,97.6,83.4,29.45,ENE,68,6.3,9.8,64,0.00,,,0.00,WUHU216HW,2013-08-04 09:23:00,
2013-08-04 12:28:00,97.6,82.8,29.45,ESE,113,4.0,9.2,63,0.00,,,0.00,WUHU216HW,2013-08-04 09:28:00,
2013-08-04 12:33:00,97.6,82.8,29.45,ENE,68,6.3,9.2,63,0.00,,,0.00,WUHU216HW,2013-08-04 09:33:00,
2013-08-04 12:38:00,98.3,83.1,29.45,ENE,68,5.8,8.5,62,0.00,,,0.00,WUHU216HW,2013-08-04 09:38:00,
2013-08-04 12:43:00,98.5,82.7,29.45,East,90,5.4,8.9,61,0.00,,,0.00,WUHU216HW,2013-08-04 09:43:00,
2013-08-04 12:48:00,98.5,83.3,29.45,ENE,68,4.0,10.1,62,0.00,,,0.00,WUHU216HW,2013-08-04 09:48:00,
2013-08-04 12:53:00,98.6,83.9,29.45,ENE,68,7.6,10.3,63,0.00,,,0.00,WUHU216HW,2013-08-04 09:53:00,
2013-08-04 12:58:00,98.3,84.1,29.45,ENE,68,4.5,10.3,64,0.00,,,0.00,WUHU216HW,2013-08-04 09:58:00,
2013-08-04 13:03:00,98.3,84.1,29.44,NNE,23,4.0,11.4,64,0.00,,,0.00,WUHU216HW,2013-08-04 10:03:00,
2013-08-04 13:08:00,98.5,84.3,29.45,NNE,23,9.8,11.4,64,0.00,,,0.00,WUHU216HW,2013-08-04 10:08:00,
2013-08-04 13:13:00,98.6,84.4,29.45,ENE,68,4.7,9.8,64,0.00,,,0.00,WUHU216HW,2013-08-04 10:13:00,
2013-08-04 13:18:00,98.3,84.1,29.44,ESE,113,4.0,9.8,64,0.00,,,0.00,WUHU216HW,2013-08-04 10:18:00,
2013-08-04 13:23:00,98.1,83.9,29.44,ENE,68,8.5,9.2,64,0.00,,,0.00,WUHU216HW,2013-08-04 10:23:00,
2013-08-04 13:28:00,98.1,83.9,29.44,North,0,8.7,9.2,64,0.00,,,0.00,WUHU216HW,2013-08-04 10:28:00,
2013-08-04 13:33:00,98.3,84.1,29.43,NNE,23,8.5,13.4,64,0.00,,,0.00,WUHU216HW,2013-08-04 10:33:00,
2013-08-04 13:38:00,98.8,84.1,29.43,NNE,23,5.4,13.4,63,0.00,,,0.00,WUHU216HW,2013-08-04 10:38:00,
2013-08-04 13:43:00,99.0,84.3,29.43,NNE,23,4.9,10.5,63,0.00,,,0.00,WUHU216HW,2013-08-04 10:43:00,
2013-08-04 13:48:00,98.3,83.5,29.43,SE,135,5.6,10.5,63,0.00,,,0.00,WUHU216HW,2013-08-04 10:48:00,
2013-08-04 13:53:00,97.7,84.0,29.43,ESE,113,7.6,12.1,65,0.00,,,0.00,WUHU216HW,2013-08-04 10:53:00,
2013-08-04 13:58:00,97.7,84.0,29.43,ENE,68,7.6,12.1,65,0.00,,,0.00,WUHU216HW,2013-08-04 10:58:00,
2013-08-04 14:03:00,98.1,84.3,29.43,East,90,8.5,11.9,65,0.00,,,0.00,WUHU216HW,2013-08-04 11:03:00,
2013-08-04 14:08:00,98.3,84.5,29.44,NNE,23,7.6,11.9,65,0.00,,,0.00,WUHU216HW,2013-08-04 11:08:00,
2013-08-04 14:13:00,98.6,84.4,29.44,East,90,5.4,11.0,64,0.00,,,0.00,WUHU216HW,2013-08-04 11:13:00,
2013-08-04 14:19:00,99.0,84.7,29.44,NE,45,10.1,11.6,64,0.00,,,0.00,WUHU216HW,2013-08-04 11:19:00,
2013-08-04 14:24:00,98.6,85.3,29.44,ENE,68,8.9,12.5,66,0.00,,,0.00,WUHU216HW,2013-08-04 11:24:00,
2013-08-04 14:29:00,98.5,85.1,29.44,ENE,68,7.6,12.5,66,0.00,,,0.00,WUHU216HW,2013-08-04 11:29:00,
2013-08-04 14:34:00,98.6,83.9,29.44,NE,45,5.4,11.4,63,0.00,,,0.00,WUHU216HW,2013-08-04 11:34:00,
2013-08-04 14:39:00,99.0,83.3,29.44,NE,45,5.4,11.4,61,0.00,,,0.00,WUHU216HW,2013-08-04 11:39:00,
2013-08-04 14:43:00,99.2,84.4,29.44,East,90,5.1,11.4,63,0.00,,,0.00,WUHU216HW,2013-08-04 11:43:00,
2013-08-04 14:49:00,99.2,85.3,29.44,East,90,7.2,11.4,65,0.00,,,0.00,WUHU216HW,2013-08-04 11:49:00,
2013-08-04 14:54:00,98.6,84.9,29.45,ENE,68,8.7,15.7,65,0.00,,,0.00,WUHU216HW,2013-08-04 11:54:00,
2013-08-04 14:59:00,98.3,84.5,29.45,East,90,11.9,15.7,65,0.00,,,0.00,WUHU216HW,2013-08-04 11:59:00,
2013-08-04 15:04:00,98.3,84.1,29.45,ENE,68,10.5,14.3,64,0.00,,,0.00,WUHU216HW,2013-08-04 12:04:00,
2013-08-04 15:09:00,98.6,84.4,29.45,East,90,11.4,14.3,64,0.00,,,0.00,WUHU216HW,2013-08-04 12:09:00,
2013-08-04 15:14:00,98.8,84.5,29.45,ESE,113,12.8,14.1,64,0.00,,,0.00,WUHU216HW,2013-08-04 12:14:00,
2013-08-04 15:19:00,99.4,83.6,29.44,ENE,68,6.9,13.6,61,0.00,,,0.00,WUHU216HW,2013-08-04 12:19:00,
2013-08-04 15:24:00,99.9,84.1,29.44,East,90,5.8,13.6,61,0.00,,,0.00,WUHU216HW,2013-08-04 12:24:00,
2013-08-04 15:29:00,100.1,84.7,29.44,ESE,113,3.1,11.9,62,0.00,,,0.00,WUHU216HW,2013-08-04 12:29:00,
2013-08-04 15:34:00,100.3,84.4,29.44,ENE,68,7.6,9.8,61,0.00,,,0.00,WUHU216HW,2013-08-04 12:34:00,
2013-08-04 15:39:00,100.3,84.4,29.44,East,90,7.4,13.2,61,0.00,,,0.00,WUHU216HW,2013-08-04 12:39:00,
2013-08-04 15:44:00,100.4,84.5,29.44,ESE,113,9.2,13.2,61,0.00,,,0.00,WUHU216HW,2013-08-04 12:44:00,
2013-08-04 15:49:00,99.4,84.5,29.44,ENE,68,8.3,12.3,63,0.00,,,0.00,WUHU216HW,2013-08-04 12:49:00,
2013-08-04 15:54:00,99.5,84.7,29.44,ENE,68,8.3,12.3,63,0.00,,,0.00,WUHU216HW,2013-08-04 12:54:00,
2013-08-04 15:59:00,99.2,84.9,29.44,ENE,68,8.5,12.3,64,0.00,,,0.00,WUHU216HW,2013-08-04 12:59:00,
2013-08-04 16:04:00,99.0,84.7,29.44,East,90,9.2,12.3,64,0.00,,,0.00,WUHU216HW,2013-08-04 13:04:00,
2013-08-04 16:09:00,99.4,85.1,29.44,East,90,8.9,11.9,64,0.00,,,0.00,WUHU216HW,2013-08-04 13:09:00,
2013-08-04 16:14:00,99.9,85.1,29.44,East,90,8.7,10.3,63,0.00,,,0.00,WUHU216HW,2013-08-04 13:14:00,
2013-08-04 16:19:00,99.4,85.5,29.44,ESE,113,4.7,10.7,65,0.00,,,0.00,WUHU216HW,2013-08-04 13:19:00,
2013-08-04 16:24:00,99.2,85.3,29.44,ENE,68,8.9,11.6,65,0.00,,,0.00,WUHU216HW,2013-08-04 13:24:00,
2013-08-04 16:29:00,98.3,85.5,29.44,ESE,113,9.8,11.6,67,0.00,,,0.00,WUHU216HW,2013-08-04 13:29:00,
2013-08-04 16:34:00,97.7,85.4,29.44,ENE,68,9.4,11.0,68,0.00,,,0.00,WUHU216HW,2013-08-04 13:34:00,
2013-08-04 16:39:00,97.6,85.8,29.44,ENE,68,9.6,12.8,69,0.00,,,0.00,WUHU216HW,2013-08-04 13:39:00,
2013-08-04 16:44:00,97.2,85.4,29.44,ENE,68,9.8,12.8,69,0.00,,,0.00,WUHU216HW,2013-08-04 13:44:00,
2013-08-04 16:49:00,97.2,85.4,29.44,East,90,6.9,10.1,69,0.00,,,0.00,WUHU216HW,2013-08-04 13:49:00,
2013-08-04 16:54:00,96.8,85.5,29.44,SE,135,7.4,10.1,70,0.00,,,0.00,WUHU216HW,2013-08-04 13:54:00,
2013-08-04 16:59:00,97.0,85.2,29.44,ENE,68,6.3,9.8,69,0.00,,,0.00,WUHU216HW,2013-08-04 13:59:00,
2013-08-04 17:04:00,97.2,85.4,29.44,East,90,5.8,10.5,69,0.00,,,0.00,WUHU216HW,2013-08-04 14:04:00,
2013-08-04 17:09:00,96.8,85.5,29.44,East,90,10.7,10.7,70,0.00,,,0.00,WUHU216HW,2013-08-04 14:09:00,
2013-08-04 17:14:00,96.5,85.6,29.44,ENE,68,7.2,10.7,71,0.00,,,0.00,WUHU216HW,2013-08-04 14:14:00,
2013-08-04 17:19:00,96.1,85.6,29.45,ENE,68,7.4,10.7,72,0.00,,,0.00,WUHU216HW,2013-08-04 14:19:00,
2013-08-04 17:24:00,95.9,85.4,29.45,ENE,68,6.7,9.6,72,0.00,,,0.00,WUHU216HW,2013-08-04 14:24:00,
2013-08-04 17:29:00,95.8,85.2,29.45,NE,45,6.9,9.2,72,0.00,,,0.00,WUHU216HW,2013-08-04 14:29:00,
2013-08-04 17:34:00,95.4,85.3,29.45,East,90,6.3,9.8,73,0.00,,,0.00,WUHU216HW,2013-08-04 14:34:00,
2013-08-04 17:39:00,95.0,85.4,29.45,ENE,68,7.8,9.8,74,0.00,,,0.00,WUHU216HW,2013-08-04 14:39:00,
2013-08-04 17:44:00,94.7,85.1,29.45,ESE,113,6.5,9.8,74,0.00,,,0.00,WUHU216HW,2013-08-04 14:44:00,
2013-08-04 17:49:00,94.5,85.3,29.45,ENE,68,7.4,10.5,75,0.00,,,0.00,WUHU216HW,2013-08-04 14:49:00,
2013-08-04 17:54:00,94.1,84.2,29.45,NNE,23,8.5,10.5,73,0.00,,,0.00,WUHU216HW,2013-08-04 14:54:00,
2013-08-04 17:59:00,94.1,84.2,29.45,ENE,68,5.1,9.4,73,0.00,,,0.00,WUHU216HW,2013-08-04 14:59:00,
2013-08-04 18:04:00,94.0,84.4,29.45,ESE,113,6.7,10.5,74,0.00,,,0.00,WUHU216HW,2013-08-04 15:04:00,
2013-08-04 18:09:00,93.8,84.2,29.45,ENE,68,6.5,10.5,74,0.00,,,0.00,WUHU216HW,2013-08-04 15:09:00,
2013-08-04 18:14:00,93.6,84.1,29.45,ENE,68,7.6,10.1,74,0.00,,,0.00,WUHU216HW,2013-08-04 15:14:00,
2013-08-04 18:19:00,93.6,84.1,29.45,ENE,68,9.2,9.8,74,0.00,,,0.00,WUHU216HW,2013-08-04 15:19:00,
2013-08-04 18:24:00,93.4,84.3,29.45,ENE,68,6.7,9.8,75,0.00,,,0.00,WUHU216HW,2013-08-04 15:24:00,
2013-08-04 18:29:00,93.4,84.3,29.45,East,90,4.7,9.8,75,0.00,,,0.00,WUHU216HW,2013-08-04 15:29:00,
2013-08-04 18:34:00,93.2,84.6,29.46,East,90,4.7,8.9,76,0.00,,,0.00,WUHU216HW,2013-08-04 15:34:00,
2013-08-04 18:39:00,93.2,84.2,29.46,East,90,3.8,8.9,75,0.00,,,0.00,WUHU216HW,2013-08-04 15:39:00,
2013-08-04 18:44:00,93.2,84.2,29.46,East,90,5.4,8.7,75,0.00,,,0.00,WUHU216HW,2013-08-04 15:44:00,
2013-08-04 18:49:00,93.1,84.0,29.46,ENE,68,5.1,8.7,75,0.00,,,0.00,WUHU216HW,2013-08-04 15:49:00,
2013-08-04 18:54:00,93.1,84.8,29.46,ENE,68,5.6,8.5,77,0.00,,,0.00,WUHU216HW,2013-08-04 15:54:00,
2013-08-04 18:59:00,92.9,84.6,29.46,East,90,6.5,8.5,77,0.00,,,0.00,WUHU216HW,2013-08-04 15:59:00,
2013-08-04 19:04:00,92.9,84.6,29.46,ENE,68,5.8,7.6,77,0.00,,,0.00,WUHU216HW,2013-08-04 16:04:00,
2013-08-04 19:09:00,92.9,84.6,29.47,ESE,113,5.1,7.6,77,0.00,,,0.00,WUHU216HW,2013-08-04 16:09:00,
2013-08-04 19:14:00,92.9,84.6,29.47,ENE,68,6.5,7.2,77,0.00,,,0.00,WUHU216HW,2013-08-04 16:14:00,
2013-08-04 19:19:00,92.7,84.9,29.47,ENE,68,5.6,7.6,78,0.00,,,0.00,WUHU216HW,2013-08-04 16:19:00,
2013-08-04 19:24:00,92.7,84.9,29.47,East,90,6.5,7.6,78,0.00,,,0.00,WUHU216HW,2013-08-04 16:24:00,
2013-08-04 19:29:00,92.5,84.7,29.47,ENE,68,5.4,7.4,78,0.00,,,0.00,WUHU216HW,2013-08-04 16:29:00,
2013-08-04 19:34:00,92.5,84.7,29.48,ENE,68,5.4,7.4,78,0.00,,,0.00,WUHU216HW,2013-08-04 16:34:00,
2013-08-04 19:40:00,92.5,84.2,29.48,NE,45,5.4,7.4,77,0.00,,,0.00,WUHU216HW,2013-08-04 16:40:00,
2013-08-04 19:45:00,92.5,83.9,29.48,East,90,4.7,6.5,76,0.00,,,0.00,WUHU216HW,2013-08-04 16:45:00,
2013-08-04 19:50:00,92.5,82.6,29.48,ENE,68,4.3,6.3,73,0.00,,,0.00,WUHU216HW,2013-08-04 16:50:00,
2013-08-04 19:55:00,92.5,81.8,29.49,NE,45,3.6,6.3,71,0.00,,,0.00,WUHU216HW,2013-08-04 16:55:00,
2013-08-04 20:00:00,92.5,81.4,29.49,ENE,68,3.4,5.8,70,0.00,,,0.00,WUHU216HW,2013-08-04 17:00:00,
2013-08-04 20:05:00,92.5,81.4,29.49,ENE,68,3.4,5.6,70,0.00,,,0.00,WUHU216HW,2013-08-04 17:05:00,
2013-08-04 20:10:00,92.5,81.4,29.49,East,90,3.1,4.3,70,0.00,,,0.00,WUHU216HW,2013-08-04 17:10:00,
2013-08-04 20:15:00,92.5,80.9,29.49,ENE,68,2.5,4.0,69,0.00,,,0.00,WUHU216HW,2013-08-04 17:15:00,
2013-08-04 20:20:00,92.5,80.9,29.50,ENE,68,2.5,4.7,69,0.00,,,0.00,WUHU216HW,2013-08-04 17:20:00,
2013-08-04 20:24:00,92.5,80.5,29.50,ENE,68,3.4,4.7,68,0.00,,,0.00,WUHU216HW,2013-08-04 17:24:00,
2013-08-04 20:30:00,92.5,80.5,29.50,ENE,68,2.5,4.9,68,0.00,,,0.00,WUHU216HW,2013-08-04 17:30:00,
2013-08-04 20:35:00,92.5,80.5,29.50,ESE,113,2.5,4.9,68,0.00,,,0.00,WUHU216HW,2013-08-04 17:35:00,
2013-08-04 20:40:00,92.5,80.5,29.50,East,90,3.1,4.7,68,0.00,,,0.00,WUHU216HW,2013-08-04 17:40:00,
2013-08-04 20:44:00,92.5,80.5,29.50,ENE,68,3.1,4.5,68,0.00,,,0.00,WUHU216HW,2013-08-04 17:44:00,
2013-08-04 20:45:00,92.5,80.5,29.50,East,90,2.0,4.5,68,0.00,,,0.00,WUHU216HW,2013-08-04 17:45:00,
2013-08-04 20:50:00,92.5,80.9,29.50,East,90,2.9,4.5,69,0.00,,,0.00,WUHU216HW,2013-08-04 17:50:00,
2013-08-04 20:55:00,92.5,80.9,29.50,ENE,68,1.8,3.8,69,0.00,,,0.00,WUHU216HW,2013-08-04 17:55:00,
2013-08-04 21:00:00,92.5,80.9,29.50,NNE,23,2.5,3.6,69,0.00,,,0.00,WUHU216HW,2013-08-04 18:00:00,
2013-08-04 21:05:00,92.5,81.4,29.50,ENE,68,3.1,5.6,70,0.00,,,0.00,WUHU216HW,2013-08-04 18:05:00,
2013-08-04 21:10:00,92.5,81.8,29.50,ENE,68,5.8,5.8,71,0.00,,,0.00,WUHU216HW,2013-08-04 18:10:00,
2013-08-04 21:15:00,92.3,81.6,29.50,East,90,3.4,5.8,71,0.00,,,0.00,WUHU216HW,2013-08-04 18:15:00,
2013-08-04 21:20:00,92.5,81.8,29.50,NE,45,4.7,5.8,71,0.00,,,0.00,WUHU216HW,2013-08-04 18:20:00,
2013-08-04 21:25:00,92.3,82.5,29.50,East,90,2.9,5.4,73,0.00,,,0.00,WUHU216HW,2013-08-04 18:25:00,
2013-08-04 21:30:00,92.3,82.5,29.50,ENE,68,4.7,5.4,73,0.00,,,0.00,WUHU216HW,2013-08-04 18:30:00,
2013-08-04 21:35:00,92.2,82.3,29.50,NNE,23,2.5,5.4,73,0.00,,,0.00,WUHU216HW,2013-08-04 18:35:00,
2013-08-04 21:40:00,92.2,82.3,29.50,North,0,2.0,4.7,73,0.00,,,0.00,WUHU216HW,2013-08-04 18:40:00,
2013-08-04 21:45:00,92.2,82.3,29.50,NE,45,2.0,5.1,73,0.00,,,0.00,WUHU216HW,2013-08-04 18:45:00,
2013-08-04 21:50:00,92.2,82.6,29.50,NNE,23,3.4,5.1,74,0.00,,,0.00,WUHU216HW,2013-08-04 18:50:00,
2013-08-04 21:55:00,92.0,82.9,29.50,NNE,23,1.8,6.9,75,0.00,,,0.00,WUHU216HW,2013-08-04 18:55:00,
2013-08-04 22:00:00,92.0,82.4,29.50,ENE,68,2.7,6.9,74,0.00,,,0.00,WUHU216HW,2013-08-04 19:00:00,
2013-08-04 22:05:00,92.0,82.4,29.50,North,0,3.4,6.9,74,0.00,,,0.00,WUHU216HW,2013-08-04 19:05:00,
2013-08-04 22:10:00,92.0,82.4,29.50,ENE,68,4.5,5.6,74,0.00,,,0.00,WUHU216HW,2013-08-04 19:10:00,
2013-08-04 22:15:00,92.0,82.4,29.49,NNE,23,5.6,5.6,74,0.00,,,0.00,WUHU216HW,2013-08-04 19:15:00,
2013-08-04 22:20:00,91.8,82.3,29.50,NNE,23,3.6,6.0,74,0.00,,,0.00,WUHU216HW,2013-08-04 19:20:00,
2013-08-04 22:25:00,91.8,82.3,29.50,East,90,3.4,6.0,74,0.00,,,0.00,WUHU216HW,2013-08-04 19:25:00,
2013-08-04 22:30:00,91.8,82.3,29.50,ENE,68,3.4,4.7,74,0.00,,,0.00,WUHU216HW,2013-08-04 19:30:00,
2013-08-04 22:35:00,92.0,82.4,29.50,North,0,2.5,4.9,74,0.00,,,0.00,WUHU216HW,2013-08-04 19:35:00,
2013-08-04 22:40:00,92.0,82.9,29.49,NNE,23,1.1,4.9,75,0.00,,,0.00,WUHU216HW,2013-08-04 19:40:00,
2013-08-04 22:45:00,92.0,82.9,29.49,ESE,113,1.6,4.0,75,0.00,,,0.00,WUHU216HW,2013-08-04 19:45:00,
2013-08-04 22:50:00,91.8,83.2,29.49,NE,45,2.9,4.9,76,0.00,,,0.00,WUHU216HW,2013-08-04 19:50:00,
2013-08-04 22:55:00,91.8,83.5,29.49,ENE,68,3.1,5.4,77,0.00,,,0.00,WUHU216HW,2013-08-04 19:55:00,
2013-08-04 23:00:00,91.8,83.5,29.49,ENE,68,3.1,5.4,77,0.00,,,0.00,WUHU216HW,2013-08-04 20:00:00,
2013-08-04 23:05:00,91.8,83.5,29.49,ESE,113,2.9,5.4,77,0.00,,,0.00,WUHU216HW,2013-08-04 20:05:00,
2013-08-04 23:10:00,91.8,83.5,29.49,East,90,3.1,4.5,77,0.00,,,0.00,WUHU216HW,2013-08-04 20:10:00,
2013-08-04 23:15:00,91.8,83.5,29.49,ENE,68,4.7,5.1,77,0.00,,,0.00,WUHU216HW,2013-08-04 20:15:00,
2013-08-04 23:20:00,91.8,83.5,29.49,ESE,113,2.0,6.3,77,0.00,,,0.00,WUHU216HW,2013-08-04 20:20:00,
2013-08-04 23:25:00,91.6,83.8,29.49,East,90,4.0,6.3,78,0.00,,,0.00,WUHU216HW,2013-08-04 20:25:00,
2013-08-04 23:30:00,91.6,83.8,29.49,North,0,5.6,6.3,78,0.00,,,0.00,WUHU216HW,2013-08-04 20:30:00,
2013-08-04 23:35:00,91.4,83.6,29.49,NNE,23,4.7,6.9,78,0.00,,,0.00,WUHU216HW,2013-08-04 20:35:00,
2013-08-04 23:40:00,91.4,83.6,29.48,NNE,23,3.6,7.4,78,0.00,,,0.00,WUHU216HW,2013-08-04 20:40:00,
2013-08-04 23:45:00,91.4,84.0,29.48,ENE,68,2.7,8.5,79,0.00,,,0.00,WUHU216HW,2013-08-04 20:45:00,
2013-08-04 23:50:00,91.4,84.0,29.48,NNE,23,4.9,8.5,79,0.00,,,0.00,WUHU216HW,2013-08-04 20:50:00,
2013-08-04 23:56:00,91.4,84.0,29.48,East,90,3.4,8.5,79,0.00,,,0.00,WUHU216HW,2013-08-04 20:56:00,